カタログに戻る

CZ-2C DEB

運用中SSO
NORAD 28482·DEBRIS·🇨🇳 China

打ち上げ Nov 18, 2004 から Xichang Satellite Launch Center

Loading…

次のパス (今後24時間)

TLE

最新Source: Space-Track

元期: Sep 14, 2026, 04:19 UTC

1 28482U 04046D   26257.17992354  .00001771  00000-0  42215-3 0  9993
2 28482  98.6273 347.4762 0099141 288.1084  97.1387 14.52164226141542

AllMySatでCZ-2C DEBをリアルタイム追跡

Download on the App Store